Retour au catalogue

ICEYE-X42

ActifScienceSSO
NORAD 62698·PAYLOAD·🇦🇪 UAE

Lancé Jan 14, 2025 depuis Vandenberg Space Force Base

Loading…

Prochains Passages (prochaines 24 heures)

TLE

FraisSource: Space-Track

Époque: Sep 14, 2026, 22:50 UTC

1 62698U 25009CT  26257.95167274  .00001632  00000-0  16723-3 0  9994
2 62698  97.7383 334.6340 0001298 103.2245 256.9119 14.91821106 90678

Suivez ICEYE-X42 en temps réel avec AllMySat

Download on the App Store